KW1M Weather Reports


Display with metric or nautical units.
time (UTC)temp
F
wind
direction
speed
MPH
gust
MPH
rain 1hr
in
rain 24hr
in
rain mn
in
humidity
%
barometer
mb
20260904140017 69 130 0.0 3.0 0.00 0.01 0.01 93 1011.0
20260904134514 67 117 0.0 4.0 0.00 0.01 0.01 96 1011.0
20260904133009 66 272 0.0 3.0 0.00 0.01 0.01 98 1011.0
20260904131506 65 210 0.0 0.0 0.00 0.01 0.01 98 1011.0
20260904130006 64 219 0.0 3.0 0.00 0.01 0.01 98 1010.9
20260904124505 64 171 0.0 0.0 0.00 0.01 0.01 98 1010.9
20260904123005 64 198 0.0 0.0 0.00 0.01 0.01 98 1010.9
20260904121504 63 159 0.0 2.0 0.00 0.01 0.01 98 1011.0
20260904120004 63 229 0.0 2.0 0.00 0.01 0.01 98 1010.9
20260904114503 63 221 0.0 0.0 0.00 0.01 0.01 98 1011.0
20260904113002 63 221 0.0 0.0 0.00 0.01 0.01 98 1010.8
20260904111502 63 221 0.0 0.0 0.00 0.01 0.01 98 1010.7
20260904110100 63 221 0.0 0.0 0.00 0.01 0.01 98 1010.6
20260904104559 63 221 0.0 0.0 0.00 0.03 0.01 98 1010.7
20260904103056 63 218 0.0 0.0 0.00 0.03 0.01 98 1010.6
20260904101555 63 139 0.0 0.0 0.00 0.03 0.01 98 1010.4
20260904100055 63 139 0.0 0.0 0.00 0.03 0.01 98 1010.3
20260904094556 63 139 0.0 0.0 0.00 0.05 0.01 98 1010.3
20260904093052 63 138 0.0 0.0 0.00 0.05 0.01 98 1010.4
20260904091552 64 138 0.0 0.0 0.00 0.05 0.01 98 1010.5
20260904090051 64 138 0.0 0.0 0.01 0.05 0.01 98 1010.4
20260904084557 64 224 0.0 0.0 0.01 0.13 0.01 98 1010.4
20260904083052 64 184 0.0 0.0 0.01 0.13 0.01 98 1010.4
20260904081547 64 184 0.0 0.0 0.01 0.13 0.01 98 1010.4
20260904080105 64 186 0.0 0.0 0.00 0.12 0.00 98 1010.5
20260904074545 64 186 0.0 0.0 0.00 0.28 0.00 98 1010.6
20260904073043 65 186 0.0 0.0 0.00 0.28 0.00 98 1010.6
20260904071543 65 186 0.0 0.0 0.00 0.28 0.00 98 1010.7
20260904070047 65 186 0.0 0.0 0.00 0.28 0.00 98 1010.8
20260904064540 65 136 0.0 0.0 0.00 0.28 0.00 98 1010.9
20260904063101 65 99 0.0 0.0 0.00 0.28 0.00 98 1011.0
20260904061537 65 98 0.0 0.0 0.00 0.28 0.00 98 1011.1
20260904060039 65 99 0.0 0.0 0.00 0.28 0.00 98 1011.4
20260904054540 65 99 0.0 0.0 0.00 0.28 0.00 98 1011.7
20260904053043 65 99 0.0 0.0 0.00 0.28 0.00 98 1011.9
20260904051530 65 32 0.0 0.0 0.00 0.28 0.00 97 1012.0
20260904050030 65 32 0.0 0.0 0.00 0.28 0.00 97 1011.8
20260904044535 65 32 0.0 0.0 0.00 0.28 0.00 97 1012.0
20260904043038 65 32 0.0 0.0 0.00 0.28 0.00 97 1012.1
20260904041525 65 32 0.0 0.0 0.00 0.28 0.00 97 1012.2
20260904040024 65 158 0.0 1.0 0.00 0.28 0.00 97 1012.1
20260904034523 65 91 0.0 1.0 0.00 0.28 0.28 97 1012.3
20260904033030 65 121 0.0 1.0 0.00 0.28 0.28 97 1012.3
20260904031622 65 150 0.0 0.0 0.00 0.28 0.28 97 1012.5
20260904030031 65 150 0.0 3.0 0.00 0.28 0.28 97 1012.6
20260904024523 66 94 0.0 1.0 0.00 0.28 0.28 96 1012.5
20260904023020 66 142 0.0 2.0 0.00 0.28 0.28 96 1012.4
20260904021528 66 145 0.0 1.0 0.00 0.28 0.28 97 1012.5
20260904020020 66 96 0.0 0.0 0.00 0.28 0.28 97 1012.8
20260904014519 66 121 0.0 2.0 0.00 0.28 0.28 97 1013.0
20260904013018 66 225 0.0 1.0 0.00 0.28 0.28 97 1013.2
20260904011518 66 109 0.0 2.0 0.00 0.28 0.28 97 1013.0
20260904010019 65 116 0.0 2.0 0.00 0.28 0.28 96 1013.1
20260904004520 65 11 0.0 1.0 0.00 0.28 0.28 96 1012.3
20260904003019 65 127 0.0 0.0 0.00 0.28 0.28 96 1012.3
20260904001516 66 100 0.0 0.0 0.00 0.28 0.28 95 1012.3
20260904000018 66 53 0.0 0.0 0.00 0.28 0.28 95 1012.2
20260903234515 66 13 0.0 0.0 0.00 0.28 0.28 94 1012.0
20260903233028 67 145 0.0 0.0 0.00 0.28 0.28 93 1012.1
20260903231523 68 146 0.0 0.0 0.00 0.28 0.28 92 1012.0
20260903230012 68 82 0.0 0.0 0.00 0.28 0.28 91 1012.3
20260903224512 69 82 0.0 0.0 0.00 0.28 0.28 89 1012.2
20260903223011 70 109 0.0 0.0 0.00 0.28 0.28 87 1012.5
20260903221509 72 109 0.0 0.0 0.00 0.28 0.28 86 1012.6
20260903220008 72 124 0.0 0.0 0.00 0.28 0.28 84 1012.6
20260903214508 73 124 0.0 0.0 0.00 0.28 0.28 82 1012.5
20260903213007 74 172 0.0 2.0 0.00 0.28 0.28 79 1012.5
20260903211503 74 94 0.0 0.0 0.00 0.28 0.28 81 1012.6
20260903210139 73 156 0.0 1.0 0.00 0.28 0.28 81 1012.6
20260903204604 72 150 0.0 3.0 0.00 0.28 0.28 83 1012.8
20260903203052 70 161 0.0 0.0 0.00 0.28 0.28 85 1012.9
20260903201550 70 166 0.0 2.0 0.00 0.28 0.28 86 1013.1
20260903200100 70 146 0.0 0.0 0.00 0.28 0.28 86 1013.2
20260903194547 70 242 0.0 3.0 0.00 0.28 0.28 85 1013.3
20260903193044 70 129 0.0 2.0 0.00 0.28 0.28 86 1013.3
20260903191541 70 346 0.0 2.0 0.00 0.28 0.28 88 1013.4
20260903190040 69 168 0.0 4.0 0.00 0.28 0.28 89 1013.6
20260903184537 69 107 0.0 2.0 0.00 0.28 0.28 89 1013.7
20260903183038 67 54 0.0 0.0 0.00 0.28 0.28 92 1013.8
20260903181529 66 142 0.0 0.0 0.00 0.28 0.28 92 1014.1
20260903180028 66 219 0.0 4.0 0.00 0.28 0.28 93 1014.2
20260903174527 65 150 1.0 2.0 0.00 0.28 0.28 93 1014.1
20260903173027 65 200 0.0 3.0 0.00 0.28 0.28 94 1014.4
20260903171525 66 158 0.0 0.0 0.00 0.28 0.28 94 1014.4
20260903170036 66 169 0.0 0.0 0.00 0.28 0.28 94 1014.3
20260903164524 66 83 0.0 0.0 0.00 0.28 0.28 95 1014.3
20260903163032 64 117 0.0 0.0 0.00 0.28 0.28 96 1014.4
20260903161518 64 158 0.0 0.0 0.00 0.28 0.28 97 1014.5
20260903160015 63 136 0.0 0.0 0.00 0.28 0.28 97 1014.5
20260903154512 62 95 0.0 0.0 0.00 0.28 0.28 97 1014.7
20260903153009 62 93 0.0 0.0 0.00 0.28 0.28 97 1015.0
20260903151510 62 144 0.0 0.0 0.00 0.28 0.28 97 1015.1
20260903150007 62 158 0.0 0.0 0.00 0.28 0.28 97 1015.4
20260903144505 61 158 0.0 0.0 0.00 0.28 0.28 97 1015.3
20260903143003 61 158 0.0 0.0 0.00 0.28 0.28 97 1015.3
20260903141502 61 158 0.0 0.0 0.00 0.28 0.28 98 1015.5